Regional Weather Roundup
Issued by NWS

Home | Current Version | Previous Version | Text Only | Print | Product List | Glossary Off
Versions: 1 2 3 4 5 6 7 8 9 10 11 12 13 14 15 16 17 18 19 20 21 22 23 24 25 26 27 28 29 30 31 32 33 34 35 36 37 38 39 40 41 42 43 44 45 46 47 48 49 50

000
ASUS45 KSLC 291010
RWRUT

UTAH REGIONAL WEATHER ROUNDUP
NATIONAL WEATHER SERVICE SALT LAKE CITY UT
400 AM MDT FRI AUG 29 2014

UTZ001>011-023>025-291100-

NORTHERN UTAH

CITY           SKY/WX    TMP DP  RH WIND       PRES   REMARKS
HILL AFB         N/A     62  43  50 E17       30.11S
LOGAN          CLEAR     54  50  86 N5        30.10S
OGDEN            N/A     61  43  51 S8        30.08S
PROVO AIRPORT    N/A     55  46  71 CALM      30.13S
SALT LAKE CITY   N/A     64  47  53 S9        30.07S
VERNAL         CLEAR     57  47  69 W6        30.15F
WENDOVER         N/A     64  39  39 N3        30.06S
HEBER CITY       N/A     45  43  93 CALM      30.21S
WEST JORDAN    CLEAR     64  50  59 CALM      30.11R

$$

UTZ012>022-026-027-291100-

SOUTHERN UTAH

CITY           SKY/WX    TMP DP  RH WIND       PRES   REMARKS
BRYCE CANYON     N/A     42  36  79 W9        30.32F
CEDAR CITY       N/A     57  37  47 S6        30.17F
MILFORD          N/A     54  42  64 S6        30.13S
MOAB/CYNLANDS  CLEAR     61  47  59 CALM      30.09R
PRICE            N/A     55  42  61 N7        30.19S
ST GEORGE        N/A     70  43  37 SE5       30.00S

$$

REGIONAL REPORTS     COLORADO/ARIZONA

CITY           SKY/WX    TMP DP  RH WIND       PRES   REMARKS
CRAIG, CO      CLOUDY    50  47  89 CALM      30.23R
GRAND JUNCTION PTCLDY    58  50  75 E9        30.14S
RIFLE          CLEAR     51  49  92 NE5       30.22S
MONTROSE       CLEAR     51  45  79 S6        30.23F
CORTEZ         CLEAR     46  42  86 CALM      30.21S
PAGE, AZ         N/A     68  43  40 CALM      30.08S
GRAND CANYON     N/A    N/A N/A N/A MISG        N/A
KINGMAN          N/A     62  38  40 SE3       30.01R
FLAGSTAFF        N/A     44  40  85 CALM      30.29S

$$

REGIONAL REPORTS    NEVADA/IDAHO/WYOMING

CITY           SKY/WX    TMP DP  RH WIND       PRES   REMARKS
LAS VEGAS, NV    N/A     82  34  17 SW6       29.85S
ELY              N/A     50  39  66 S12       30.21F
ELKO             N/A     51  35  54 CALM      30.11S
POCATELLO, ID  PTCLDY    62  45  53 N8        30.07R
BURLEY           N/A     60  45  57 CALM      30.03S
EVANSTON, WY   CLEAR     51  40  65 S8        30.26F
ROCK SPRINGS   CLEAR     55  42  61 W12       30.22S

$$



USA.gov is the U.S. government's official web portal to all federal, state and local government web resources and services.